sat.trackr.live / text

‹ back to catalog

SKYNET 5B

NORAD 32294 · 2007-056B

PAYLOAD ACTIVE UNKNOWN

§ Identity

Operator
Country
UK
Launch date
2007-11-14
Launch site
FRGUI
Launch vehicle
Mass (kg)
RCS (m²)
15.89

Purposes: comms

External: N2YO · Heavens-Above · Gunter

§ Orbital elements

Epoch: 2026-05-25T01:41:02.876352Z

Period
1,436.14 min
Inclination
5.1949°
Eccentricity
0.0003902
Mean motion
1.00268921 rev/d
Perigee alt
35,770.9 km
Apogee alt
35,803.9 km
Semi-major
42,165.5 km
B*
0.0000e+0
RAAN
73.7731°
Arg perigee
344.6990°
Mean anomaly
234.5608°
Rev number
6,796

§ Raw data

SKYNET 5B1 32294U 07056B   26145.07017218  .00000138  00000+0  00000+0 0  99922 32294   5.1949  73.7731 0003902 344.6990 234.5608  1.00268921 67962

JSON: /api/v1/satellites/32294 · /tle

For live sub-satellite position, see the globe view (requires WebGL).

§ Visibility from observer

Set your observer location to see the next 7 days of passes ≥ 10°. The values pass through the URL so the page stays shareable.

No JS? Fill the form by hand. The geolocation button needs JavaScript.